When you browse on this site, cookies collect data to enhance your experience and personalize the content and advertising you see.
Visit our Privacy Policy to learn more. By continuing to use the site, you agree to this use of cookies and data.
  • în România
  • Lista ţărilor
  • Pe 7 zile
  • Temperatura apei
  • Meteo pe hartă
  • Widget-uri
  • user-avatar
    Intrare

    Meteo pe oră la Schiltigheim

    Astăzi, 22 August, Joi

    Timp Temperatura Precipitaţii Vânt Presiune Umiditate
    00:00 +16°C° 0 mm 2 m/s 756 mmHg 78%
    01:00 +15°C° 0 mm 1 m/s 756 mmHg 81%
    02:00 +15°C° 0 mm 1 m/s 756 mmHg 82%
    03:00 +14°C° 0 mm 2 m/s 755 mmHg 83%
    04:00 +14°C° 0 mm 2 m/s 755 mmHg 84%
    05:00 +15°C° 0 mm 2 m/s 755 mmHg 82%
    06:00 +15°C° 0 mm 2 m/s 755 mmHg 81%
    07:00 +16°C° 0 mm 1 m/s 756 mmHg 80%
    08:00 +18°C° 0 mm 2 m/s 756 mmHg 73%
    09:00 +20°C° 0 mm 2 m/s 756 mmHg 66%
    10:00 +23°C° 0 mm 2 m/s 756 mmHg 60%
    11:00 +24°C° 0 mm 3 m/s 755 mmHg 56%
    12:00 +25°C° 0 mm 3 m/s 755 mmHg 52%
    13:00 +27°C° 0 mm 3 m/s 755 mmHg 49%
    14:00 +27°C° 0 mm 3 m/s 755 mmHg 48%
    15:00 +27°C° 0 mm 3 m/s 755 mmHg 48%
    16:00 +27°C° 0 mm 3 m/s 754 mmHg 48%
    17:00 +26°C° 0 mm 3 m/s 754 mmHg 55%
    18:00 +24°C° 0 mm 2 m/s 754 mmHg 62%
    19:00 +23°C° 0 mm 2 m/s 754 mmHg 69%
    20:00 +20°C° 0 mm 2 m/s 755 mmHg 73%
    21:00 +19°C° 0 mm 2 m/s 755 mmHg 77%
    22:00 +18°C° 0 mm 2 m/s 755 mmHg 80%
    23:00 +17°C° 0 mm 2 m/s 755 mmHg 82%

    Mâine, 23 August, Vineri

    Timp Temperatura Precipitaţii Vânt Presiune Umiditate
    00:00 +18°C° 0 mm 1 m/s 755 mmHg 84%
    01:00 +16°C° 0 mm 1 m/s 755 mmHg 85%
    02:00 +16°C° 0 mm 1 m/s 755 mmHg 86%
    03:00 +16°C° 0 mm 1 m/s 755 mmHg 87%
    04:00 +15°C° 0 mm 1 m/s 755 mmHg 87%
    05:00 +16°C° 0 mm 1 m/s 755 mmHg 86%
    06:00 +16°C° 0 mm 1 m/s 755 mmHg 84%
    07:00 +18°C° 0 mm 1 m/s 755 mmHg 83%
    08:00 +19°C° 0 mm 2 m/s 755 mmHg 76%
    09:00 +21°C° 0 mm 2 m/s 755 mmHg 69%
    10:00 +24°C° 0 mm 2 m/s 755 mmHg 63%
    11:00 +25°C° 0 mm 2 m/s 755 mmHg 59%
    12:00 +27°C° 0 mm 3 m/s 754 mmHg 56%
    13:00 +28°C° 0 mm 3 m/s 754 mmHg 52%
    14:00 +28°C° 0 mm 3 m/s 753 mmHg 51%
    15:00 +29°C° 0 mm 3 m/s 753 mmHg 51%
    16:00 +29°C° 0 mm 3 m/s 753 mmHg 50%
    17:00 +27°C° 0 mm 3 m/s 753 mmHg 56%
    18:00 +25°C° 0 mm 3 m/s 753 mmHg 62%
    19:00 +24°C° 0 mm 2 m/s 753 mmHg 68%
    20:00 +23°C° 0 mm 2 m/s 753 mmHg 72%
    21:00 +20°C° 0 mm 2 m/s 753 mmHg 76%
    22:00 +19°C° 0 mm 2 m/s 753 mmHg 80%
    23:00 +20°C° 0 mm 1 m/s 753 mmHg 82%

    Poimâine, 24 August, Sâmbătă

    Timp Temperatura Precipitaţii Vânt Presiune Umiditate
    00:00 +19°C° 0 mm 1 m/s 753 mmHg 83%
    01:00 +19°C° 0 mm 1 m/s 752 mmHg 85%
    02:00 +19°C° 0 mm 1 m/s 752 mmHg 86%
    03:00 +18°C° 0 mm 1 m/s 752 mmHg 87%
    04:00 +18°C° 0 mm 1 m/s 752 mmHg 87%
    05:00 +19°C° 0 mm 1 m/s 752 mmHg 86%
    06:00 +19°C° 0 mm 1 m/s 752 mmHg 85%
    07:00 +20°C° 0 mm 1 m/s 752 mmHg 84%
    08:00 +22°C° 0 mm 1 m/s 752 mmHg 78%
    09:00 +24°C° 0 mm 1 m/s 752 mmHg 72%
    10:00 +26°C° 0 mm 1 m/s 752 mmHg 66%
    11:00 +27°C° 0 mm 1 m/s 752 mmHg 62%
    12:00 +28°C° 0 mm 1 m/s 752 mmHg 59%
    13:00 +30°C° 0 mm 1 m/s 751 mmHg 55%
    14:00 +30°C° 0 mm 1 m/s 751 mmHg 54%
    15:00 +30°C° 0 mm 1 m/s 751 mmHg 53%
    16:00 +31°C° 0 mm 1 m/s 750 mmHg 52%
    17:00 +29°C° 0 mm 1 m/s 750 mmHg 59%
    18:00 +27°C° 0 mm 1 m/s 750 mmHg 66%
    19:00 +26°C° 0 mm 2 m/s 750 mmHg 73%
    20:00 +25°C° 0 mm 1 m/s 750 mmHg 77%
    21:00 +24°C° 0 mm 1 m/s 751 mmHg 81%
    22:00 +22°C° 0 mm 1 m/s 751 mmHg 85%
    23:00 +22°C° 0 mm 1 m/s 751 mmHg 85%

    25 August, Duminică

    Timp Temperatura Precipitaţii Vânt Presiune Umiditate
    00:00 +22°C° 0 mm 1 m/s 750 mmHg 86%
    01:00 +21°C° 0 mm 1 m/s 750 mmHg 87%
    02:00 +19°C° 0 mm 0 m/s 750 mmHg 88%
    03:00 +18°C° 0 mm 0 m/s 750 mmHg 89%
    04:00 +18°C° 0 mm 0 m/s 750 mmHg 90%
    05:00 +19°C° 0 mm 0 m/s 750 mmHg 89%
    06:00 +19°C° 0 mm 0 m/s 750 mmHg 88%
    07:00 +20°C° 0 mm 0 m/s 750 mmHg 87%
    08:00 +23°C° 0 mm 1 m/s 750 mmHg 80%
    09:00 +25°C° 0 mm 1 m/s 751 mmHg 73%
    10:00 +27°C° 0 mm 1 m/s 751 mmHg 66%
    11:00 +29°C° 0 mm 1 m/s 751 mmHg 60%
    12:00 +30°C° 0 mm 1 m/s 750 mmHg 54%
    13:00 +31°C° 0 mm 1 m/s 750 mmHg 48%
    14:00 +31°C° 0 mm 1 m/s 750 mmHg 46%
    15:00 +31°C° 0 mm 1 m/s 750 mmHg 43%
    16:00 +32°C° 0 mm 1 m/s 750 mmHg 41%
    17:00 +30°C° 0 mm 1 m/s 750 mmHg 47%
    18:00 +28°C° 0 mm 1 m/s 750 mmHg 53%
    19:00 +26°C° 0 mm 1 m/s 750 mmHg 59%
    20:00 +25°C° 0 mm 1 m/s 751 mmHg 62%
    21:00 +24°C° 0 mm 1 m/s 751 mmHg 64%
    22:00 +23°C° 0 mm 1 m/s 751 mmHg 67%
    23:00 +20°C° 0 mm 0 m/s 751 mmHg 68%

    26 August, Luni

    Timp Temperatura Precipitaţii Vânt Presiune Umiditate
    00:00 +20°C° 0 mm 0 m/s 751 mmHg 70%
    01:00 +20°C° 0 mm 0 m/s 751 mmHg 71%
    02:00 +21°C° 0 mm 1 m/s 751 mmHg 73%
    03:00 +21°C° 0 mm 1 m/s 751 mmHg 74%
    04:00 +20°C° 0 mm 1 m/s 751 mmHg 76%
    05:00 +19°C° 0 mm 0 m/s 751 mmHg 75%
    06:00 +19°C° 0 mm 0 m/s 751 mmHg 75%
    07:00 +20°C° 0 mm 0 m/s 751 mmHg 75%
    08:00 +24°C° 0 mm 1 m/s 752 mmHg 69%
    09:00 +26°C° 0 mm 1 m/s 752 mmHg 63%
    10:00 +28°C° 0 mm 1 m/s 752 mmHg 56%
    11:00 +29°C° 0 mm 1 m/s 752 mmHg 52%
    12:00 +30°C° 0 mm 2 m/s 751 mmHg 48%
    13:00 +31°C° 0 mm 2 m/s 751 mmHg 44%
    14:00 +32°C° 0 mm 2 m/s 751 mmHg 43%
    15:00 +32°C° 0 mm 2 m/s 751 mmHg 43%
    16:00 +32°C° 0 mm 2 m/s 751 mmHg 43%
    17:00 +30°C° 0 mm 2 m/s 750 mmHg 49%
    18:00 +28°C° 0 mm 2 m/s 750 mmHg 55%
    19:00 +27°C° 0 mm 2 m/s 750 mmHg 61%
    20:00 +26°C° 0 mm 2 m/s 750 mmHg 63%
    21:00 +25°C° 0 mm 2 m/s 751 mmHg 66%
    22:00 +23°C° 0 mm 1 m/s 751 mmHg 68%
    23:00 +23°C° 0 mm 1 m/s 751 mmHg 70%

    27 August, Marţi

    Timp Temperatura Precipitaţii Vânt Presiune Umiditate
    00:00 +22°C° 0 mm 1 m/s 751 mmHg 72%
    01:00 +22°C° 0 mm 1 m/s 750 mmHg 74%
    02:00 +21°C° 0 mm 1 m/s 750 mmHg 75%
    03:00 +21°C° 0 mm 1 m/s 750 mmHg 77%
    04:00 +21°C° 0 mm 1 m/s 749 mmHg 78%
    05:00 +21°C° 0 mm 1 m/s 750 mmHg 77%
    06:00 +21°C° 0 mm 1 m/s 750 mmHg 76%
    07:00 +22°C° 0 mm 1 m/s 750 mmHg 76%
    08:00 +24°C° 0 mm 1 m/s 750 mmHg 69%
    09:00 +26°C° 0 mm 1 m/s 750 mmHg 62%
    10:00 +28°C° 0 mm 2 m/s 750 mmHg 55%
    11:00 +29°C° 0 mm 2 m/s 749 mmHg 52%
    12:00 +30°C° 0 mm 2 m/s 749 mmHg 48%
    13:00 +32°C° 0 mm 2 m/s 749 mmHg 45%
    14:00 +32°C° 0 mm 2 m/s 748 mmHg 44%
    15:00 +32°C° 0 mm 2 m/s 748 mmHg 44%
    16:00 +32°C° 0 mm 2 m/s 747 mmHg 43%
    17:00 +31°C° 0 mm 2 m/s 747 mmHg 50%
    18:00 +29°C° 0 mm 2 m/s 747 mmHg 56%
    19:00 +27°C° 0 mm 2 m/s 747 mmHg 63%
    20:00 +26°C° 0 mm 1 m/s 747 mmHg 66%
    21:00 +25°C° 0 mm 1 m/s 747 mmHg 69%
    22:00 +24°C° 0 mm 1 m/s 747 mmHg 72%
    23:00 +23°C° 0.1 mm 1 m/s 747 mmHg 74%
    Arată mai mult